Regional Weather Roundup
Issued by NWS Newport/Morehead, NC

Current Version | Previous Version | Text Only | Print | Product List | Glossary On
Versions: 1 2 3 4 5 6 7 8 9 10 11 12 13 14 15 16 17 18 19 20 21 22 23 24 25 26 27 28 29 30 31 32 33 34 35 36 37 38 39 40 41 42 43 44 45 46 47 48 49 50
000 ASUS42 KMHX 262110 RWRMHX WEATHER ROUNDUP FOR EASTERN NORTH CAROLINA NATIONAL WEATHER SERVICE NEWPORT/MOREHEAD CITY NC 400 PM EST FRI DEC 26 2014 NOTE: "FAIR" INDICATES FEW OR NO CLOUDS BELOW 12,000 FEET WITH NO SIGNIFICANT WEATHER AND/OR OBSTRUCTIONS TO VISIBILITY NCZ015>017-031-032-045>047-102-103-262200- NORTH COAST CITY SKY/WX TMP DP RH WIND PRES REMARKS EDENTON CLEAR 56 36 46 W3 30.28S ELIZABETH CITY CLEAR 58 36 43 W5 30.28R KITTY HAWK CLEAR 53 35 50 W5 30.27S MANTEO CLEAR 52 36 54 NW3 30.29R $$ NCZ045>047-081-094-103-104-262200- CENTRAL COAST CITY SKY/WX TMP DP RH WIND PRES REMARKS FRISCO CLEAR 54 39 57 NW7 30.28S SWANQUARTER N/A 57 N/A N/A W5 30.24S $$ NCZ095-097-098-100-101-262200- SOUTHERN COAST CITY SKY/WX TMP DP RH WIND PRES REMARKS BEAUFORT CLEAR 59 37 44 NE3 30.28S CEDAR ISLAND N/A 54 N/A N/A VRB5 30.33S JACKSONVILLE SUNNY 60 36 40 NE3 30.28R PINEY ISLAND CLEAR 56 41 57 NE7 30.28S WILMINGTON SUNNY 61 39 44 W3 30.28R $$ NCZ011>013-027>030-043-044-078>080-089-090>093-098-262200- COASTAL PLAIN CITY SKY/WX TMP DP RH WIND PRES REMARKS AHOSKIE CLEAR 54 36 50 CALM 30.29R CLINTON SUNNY 59 38 45 W3 30.30R ELIZABETHTOWN SUNNY 59 35 39 SW3 30.29R GOLDSBORO SUNNY 58 38 47 W3 30.26S GREENVILLE CLEAR 57 34 41 W3 30.29S HAVELOCK PTCLDY 59 36 42 N6 30.29S KENANSVILLE SUNNY 58 33 39 CALM 30.30R KINSTON SUNNY 57 36 44 CALM 30.29S NEW BERN CLEAR 59 37 44 NE3 30.29S RICHLANDS SUNNY 57 34 41 CALM 30.29R ROCKY MOUNT SUNNY 58 34 40 CALM 30.28S WASHINGTON CLEAR 57 34 42 CALM 30.29R WHITEVILLE SUNNY 59 35 40 CALM 30.29R $$ AMZ130-135-150-152-154-156-158-170-250-252-270-ANZ085-086-088-633-658-670-262200- MARINE OBSERVATIONS STATION/POSITION TIME TEMP WIND PRES WAVE SWELL AIR SEA DIR/SP/G HT/PER HT/PER (UTC) (F) (DEG/KT/KT) (MB) (FT/S) (FT/S) CHESAPEAKE LIGHT 2000 49 90/ 5/ 6 1025.7 64 E VA BEACH 2100 51 52 10/ 2/ 4 1024.9 3/ 7 2/ 7 DUCK 2100 53 51 1024.4 2 E DUCK 2100 50 N/A 2/13 2/13 10 NE DUCK 2100 51 N/A 2/ 8 2/13 OREGON INLET 2100 54 53 1025.3 13E OREGON INLT 2100 51 N/A 3/ 8 2/14 HATTERAS CG 2100 53 56 1025.7 DIAMOND BUOY 2100 57 1025.6 3/ 9 17 S OCRACOKE NOT AVBL CAPE LOOKOUT 2100 56 50/ 3/ 4 1025.1 BEAUFORT LAB 2100 59 55 1024.1 30 SE NEW RIVER 2000 56 61 10/ 8/ 8 1025.6 5 SE WRIGHTSVLE NOT AVBL 225 S CAPE HAT 2033 68 74 30/ 8/ 10 1024.5 3/ 6 3/ 6 41 SE CHARLESTON 2100 62 72 20/ 14/ 17 1024.4 3/ 7 2/ 7 $$

USA.gov is the U.S. government's official web portal to all federal, state and local government web resources and services.